EW1011 Weather Reports


time (UTC)temp
C
wind
direction
speed
KPH
gust
KPH
rain 1hr
cm
rain 24hr
cm
rain mn
cm
humidity
%
barometer
mb
20260510133001 18 227 0.0 1.6 0.00 0.00 0.00 72 1011.6
20260510131604 18 227 0.0 0.0 0.00 0.00 0.00 76 1011.9
20260510130054 17 227 0.0 0.0 0.00 0.00 0.00 79 1011.9
20260510124559 16 227 0.0 1.6 0.00 0.00 0.00 83 1012.1
20260510123046 15 227 0.0 0.0 0.00 0.00 0.00 84 1012.2
20260510121542 15 227 0.0 0.0 0.00 0.00 0.00 88 1012.0
20260510120039 13 227 0.0 0.0 0.00 0.00 0.00 90 1011.9
20260510114537 13 227 0.0 0.0 0.00 0.00 0.00 93 1011.8
20260510113033 12 227 0.0 0.0 0.00 0.00 0.00 93 1011.4
20260510111538 11 227 0.0 0.0 0.00 0.00 0.00 93 1011.4
20260510110032 11 227 0.0 0.0 0.00 0.00 0.00 94 1011.2
20260510104530 10 227 0.0 0.0 0.00 0.00 0.00 93 1010.8
20260510103030 10 227 0.0 0.0 0.00 0.00 0.00 93 1010.4
20260510101531 10 227 0.0 0.0 0.00 0.00 0.00 93 1010.4
20260510100028 10 227 0.0 0.0 0.00 0.00 0.00 93 1010.4
20260510094541 10 227 0.0 0.0 0.00 0.00 0.00 93 1010.4
20260510093027 10 227 0.0 0.0 0.00 0.00 0.00 93 1010.4
20260510091533 10 227 0.0 0.0 0.00 0.00 0.00 93 1010.2
20260510090027 10 227 0.0 0.0 0.00 0.00 0.00 93 1010.0
20260510084524 10 227 0.0 0.0 0.00 0.00 0.00 93 1009.9
20260510083039 10 227 0.0 0.0 0.00 0.00 0.00 93 1009.8
20260510081523 10 227 0.0 0.0 0.00 0.00 0.00 92 1009.6
20260510080026 10 227 0.0 0.0 0.00 0.00 0.00 93 1009.3
20260510074520 10 227 0.0 0.0 0.00 0.00 0.00 92 1009.2
20260510073021 10 227 0.0 0.0 0.00 0.00 0.00 92 1009.0
20260510071520 11 227 0.0 0.0 0.00 0.00 0.00 92 1009.2
20260510070016 11 227 0.0 0.0 0.00 0.00 0.00 92 1008.8
20260510064515 11 227 0.0 0.0 0.00 0.00 0.00 92 1008.8
20260510063016 11 227 0.0 0.0 0.00 0.00 0.00 92 1008.8
20260510061511 11 227 0.0 0.0 0.00 0.00 0.00 91 1008.8
20260510060016 11 227 0.0 0.0 0.00 0.00 0.00 91 1008.8
20260510054510 12 227 0.0 0.0 0.00 0.00 0.00 91 1009.0
20260510053007 12 227 0.0 0.0 0.00 0.00 0.00 91 1008.8
20260510051506 12 227 0.0 0.0 0.00 0.00 0.00 91 1008.9
20260510050007 12 227 0.0 0.0 0.00 0.00 0.00 91 1009.1
20260510044504 12 227 0.0 0.0 0.00 0.00 0.00 90 1009.2
20260510043002 12 227 0.0 0.0 0.00 0.00 0.00 90 1009.2
20260510041501 12 227 0.0 0.0 0.00 0.00 0.00 90 1009.0
20260510040059 13 227 0.0 0.0 0.00 0.00 0.00 89 1008.9
20260510034557 13 227 0.0 0.0 0.00 0.00 0.00 89 1008.9
20260510033108 13 227 0.0 0.0 0.00 0.00 0.00 88 1008.9
20260510031555 13 227 0.0 0.0 0.00 0.00 0.00 87 1008.8
20260510024555 14 227 0.0 0.0 0.00 0.00 0.00 86 1008.8
20260510023054 14 227 0.0 0.0 0.00 0.00 0.00 86 1008.8
20260510021559 15 227 0.0 0.0 0.00 0.00 0.00 85 1008.8
20260510020051 15 227 0.0 0.0 0.00 0.00 0.00 84 1008.8
20260510014553 15 227 0.0 0.0 0.00 0.00 0.00 84 1008.5
20260510013051 15 227 0.0 0.0 0.00 0.00 0.00 83 1008.4
20260510011551 16 227 0.0 0.0 0.00 0.00 0.00 82 1008.3
20260510010049 16 227 0.0 0.0 0.00 0.00 0.00 80 1008.3
20260510004551 16 227 0.0 0.0 0.00 0.00 0.00 78 1008.3
20260510003049 17 227 0.0 0.0 0.00 0.00 0.00 76 1007.9
20260510001548 17 227 0.0 0.0 0.00 0.00 0.00 74 1007.9
20260510000047 17 227 0.0 0.0 0.00 0.00 0.00 73 1007.8
20260509234549 18 227 0.0 0.0 0.00 0.00 0.00 72 1007.6
20260509233046 18 227 0.0 0.0 0.00 0.00 0.00 68 1007.3
20260509231547 20 227 0.0 0.0 0.00 0.00 0.00 66 1007.2
20260509230049 20 227 0.0 1.6 0.00 0.00 0.00 65 1007.2
20260509224545 20 138 0.0 1.6 0.00 0.00 0.00 64 1007.2
20260509223045 20 138 0.0 1.6 0.00 0.00 0.00 65 1007.3
20260509221544 20 138 0.0 3.2 0.00 0.00 0.00 64 1007.3
20260509220043 20 130 0.0 3.2 0.00 0.00 0.00 62 1007.3
20260509214543 21 114 0.0 3.2 0.00 0.00 0.00 63 1007.4
20260509213050 21 114 0.0 3.2 0.00 0.00 0.00 63 1007.4
20260509211542 21 114 0.0 3.2 0.00 0.00 0.00 64 1007.3
20260509210058 21 114 0.0 1.6 0.00 0.00 0.00 64 1007.2
20260509204543 20 114 0.0 3.2 0.00 0.00 0.00 65 1007.1
20260509203043 20 114 0.0 1.6 0.00 0.00 0.00 66 1007.2
20260509201540 20 114 0.0 3.2 0.00 0.00 0.00 62 1007.5
20260509200039 20 114 0.0 1.6 0.00 0.00 0.00 66 1007.8
20260509194538 20 114 0.0 1.6 0.00 0.00 0.00 69 1007.9
20260509193043 20 114 0.0 1.6 0.00 0.00 0.00 69 1008.2
20260509191540 19 114 0.0 8.0 0.00 0.00 0.00 72 1008.2
20260509190037 17 116 0.0 1.6 0.00 0.00 0.00 80 1008.4
20260509184546 18 116 0.0 0.0 0.00 0.00 0.00 74 1008.5
20260509183033 18 116 0.0 0.0 0.00 0.00 0.00 70 1008.7
20260509181542 18 116 0.0 0.0 0.00 0.00 0.00 71 1008.9
20260509180030 18 116 0.0 0.0 0.00 0.00 0.00 69 1009.1
20260509174530 18 116 0.0 0.0 0.00 0.00 0.00 70 1009.0
20260509173029 17 116 0.0 0.0 0.00 0.00 0.00 71 1009.2
20260509171528 17 116 0.0 0.0 0.00 0.00 0.00 70 1009.2
20260509170036 17 116 0.0 1.6 0.00 0.00 0.00 69 1009.2
20260509164535 18 116 0.0 1.6 0.00 0.00 0.00 67 1009.2
20260509163030 18 116 0.0 1.6 0.00 0.00 0.00 65 1009.2
20260509161533 20 116 0.0 1.6 0.00 0.00 0.00 59 1009.3
20260509160031 20 116 0.0 4.8 0.00 0.00 0.00 57 1009.4
20260509154525 21 112 0.0 3.2 0.00 0.00 0.00 57 1009.3
20260509153027 20 112 0.0 4.8 0.00 0.00 0.00 59 1009.6
20260509151520 20 200 0.0 3.2 0.00 0.00 0.00 59 1009.9